Wetterdaten: Sonntag, 28.02.2010
Datum Zeit Temp. I. Temp. A. Boden 5 cm Feuchte A. Sonne Luftdruck Regen Wind
28.02.2010 00:02 21,8 C 4,1 C 2,6 C 64 % 0 % 995 hPa 0,0 l/m 8,9 km/h (2 Bft)
28.02.2010 00:05 21,8 C 4,1 C 2,3 C 64 % 0 % 995 hPa 0,0 l/m 8,2 km/h (2 Bft)
28.02.2010 00:08 21,8 C 4,1 C 2,5 C 64 % 0 % 995 hPa 0,0 l/m 3,0 km/h (1 Bft)
28.02.2010 00:11 21,8 C 4,0 C 2,6 C 64 % 0 % 995 hPa 0,0 l/m 6,3 km/h (2 Bft)
28.02.2010 00:14 21,8 C 4,0 C 2,6 C 64 % 0 % 994 hPa 0,0 l/m 9,2 km/h (2 Bft)
28.02.2010 00:17 21,8 C 4,0 C 2,6 C 64 % 0 % 994 hPa 0,0 l/m 8,9 km/h (2 Bft)
28.02.2010 00:20 21,8 C 4,0 C 2,6 C 64 % 0 % 994 hPa 0,0 l/m 5,2 km/h (1 Bft)
28.02.2010 00:23 21,8 C 4,0 C 2,7 C 64 % 0 % 994 hPa 0,0 l/m 9,9 km/h (2 Bft)
28.02.2010 00:26 21,8 C 4,0 C 2,7 C 64 % 0 % 994 hPa 0,0 l/m 10,2 km/h (2 Bft)
28.02.2010 00:29 21,8 C 3,9 C 2,6 C 64 % 0 % 994 hPa 0,0 l/m 9,4 km/h (2 Bft)
28.02.2010 00:32 21,8 C 4,0 C 2,6 C 64 % 0 % 994 hPa 0,0 l/m 7,6 km/h (2 Bft)
28.02.2010 00:35 21,8 C 3,9 C 2,8 C 64 % 0 % 994 hPa 0,0 l/m 11,5 km/h (2 Bft)
28.02.2010 00:38 21,8 C 3,9 C 2,7 C 64 % 0 % 994 hPa 0,0 l/m 4,7 km/h (1 Bft)
28.02.2010 00:41 21,8 C 3,9 C 2,8 C 64 % 0 % 994 hPa 0,0 l/m 5,8 km/h (2 Bft)
28.02.2010 00:44 21,8 C 3,9 C 2,8 C 64 % 0 % 994 hPa 0,0 l/m 3,8 km/h (1 Bft)
28.02.2010 00:47 21,8 C 3,9 C 2,6 C 64 % 0 % 994 hPa 0,0 l/m 2,4 km/h (1 Bft)
28.02.2010 00:50 21,8 C 3,9 C 2,3 C 64 % 0 % 994 hPa 0,0 l/m 4,8 km/h (1 Bft)
28.02.2010 00:56 21,8 C 3,9 C 2,3 C 64 % 0 % 994 hPa 0,0 l/m 0,4 km/h (0 Bft)
28.02.2010 00:59 21,8 C 3,9 C 2,3 C 64 % 0 % 994 hPa 0,0 l/m 0,0 km/h (0 Bft)
28.02.2010 01:02 21,8 C 3,9 C 2,4 C 64 % 0 % 994 hPa 0,0 l/m 6,0 km/h (2 Bft)
28.02.2010 01:05 21,8 C 3,9 C 2,4 C 63 % 0 % 994 hPa 0,0 l/m 1,3 km/h (1 Bft)
28.02.2010 01:08 21,8 C 3,9 C 2,6 C 63 % 0 % 994 hPa 0,0 l/m 5,9 km/h (2 Bft)
28.02.2010 01:11 21,8 C 4,0 C 2,4 C 63 % 0 % 994 hPa 0,0 l/m 3,1 km/h (1 Bft)
28.02.2010 01:14 21,8 C 4,0 C 2,8 C 63 % 0 % 994 hPa 0,0 l/m 6,6 km/h (2 Bft)
28.02.2010 01:17 21,8 C 4,0 C 2,8 C 63 % 0 % 994 hPa 0,0 l/m 6,6 km/h (2 Bft)
28.02.2010 01:20 21,8 C 4,0 C 3,0 C 63 % 0 % 994 hPa 0,0 l/m 7,6 km/h (2 Bft)
28.02.2010 01:23 21,8 C 4,0 C 2,9 C 63 % 0 % 994 hPa 0,0 l/m 10,3 km/h (2 Bft)
28.02.2010 01:26 21,8 C 4,0 C 2,9 C 63 % 0 % 993 hPa 0,0 l/m 9,0 km/h (2 Bft)
28.02.2010 01:29 21,8 C 4,1 C 2,8 C 64 % 0 % 993 hPa 0,0 l/m 7,4 km/h (2 Bft)
28.02.2010 01:32 21,8 C 4,1 C 2,7 C 63 % 0 % 993 hPa 0,0 l/m 6,6 km/h (2 Bft)
28.02.2010 01:35 21,8 C 4,0 C 2,9 C 63 % 0 % 993 hPa 0,0 l/m 7,9 km/h (2 Bft)
28.02.2010 01:38 21,8 C 4,0 C 2,8 C 63 % 0 % 993 hPa 0,0 l/m 6,1 km/h (2 Bft)
28.02.2010 01:41 21,8 C 4,0 C 2,7 C 63 % 0 % 993 hPa 0,0 l/m 5,3 km/h (1 Bft)
28.02.2010 01:44 21,8 C 4,0 C 2,7 C 63 % 0 % 993 hPa 0,0 l/m 6,8 km/h (2 Bft)
28.02.2010 01:47 21,8 C 4,0 C 2,6 C 63 % 0 % 993 hPa 0,0 l/m 8,5 km/h (2 Bft)
28.02.2010 01:50 21,8 C 3,9 C 2,7 C 63 % 0 % 993 hPa 0,0 l/m 9,2 km/h (2 Bft)
28.02.2010 01:56 21,8 C 3,9 C 2,6 C 63 % 0 % 993 hPa 0,0 l/m 7,5 km/h (2 Bft)
28.02.2010 01:59 21,8 C 3,9 C 2,7 C 64 % 0 % 993 hPa 0,0 l/m 5,2 km/h (1 Bft)
28.02.2010 02:02 21,8 C 3,9 C 2,5 C 63 % 0 % 993 hPa 0,0 l/m 5,5 km/h (1 Bft)
28.02.2010 02:05 21,8 C 3,9 C 2,3 C 63 % 0 % 993 hPa 0,0 l/m 3,5 km/h (1 Bft)
28.02.2010 02:08 21,8 C 3,9 C 2,4 C 63 % 0 % 993 hPa 0,0 l/m 0,4 km/h (0 Bft)
28.02.2010 02:11 21,8 C 3,9 C 2,2 C 63 % 0 % 993 hPa 0,0 l/m 1,4 km/h (1 Bft)
28.02.2010 02:14 21,8 C 3,9 C 1,8 C 63 % 0 % 993 hPa 0,0 l/m 0,0 km/h (0 Bft)
28.02.2010 02:17 21,8 C 3,9 C 1,8 C 63 % 0 % 993 hPa 0,0 l/m 0,0 km/h (0 Bft)
28.02.2010 02:20 21,8 C 3,8 C 1,7 C 63 % 0 % 993 hPa 0,0 l/m 0,0 km/h (0 Bft)
28.02.2010 02:23 21,8 C 3,8 C 1,7 C 64 % 0 % 993 hPa 0,0 l/m 0,0 km/h (0 Bft)
28.02.2010 02:26 21,8 C 3,8 C 1,6 C 64 % 0 % 993 hPa 0,0 l/m 0,0 km/h (0 Bft)
28.02.2010 02:29 21,8 C 3,8 C 1,6 C 64 % 0 % 993 hPa 0,0 l/m 0,0 km/h (0 Bft)
28.02.2010 02:32 21,8 C 3,7 C 1,6 C 64 % 0 % 993 hPa 0,0 l/m 0,0 km/h (0 Bft)
28.02.2010 02:35 21,8 C 3,7 C 1,7 C 64 % 0 % 993 hPa 0,0 l/m 0,2 km/h (0 Bft)
28.02.2010 02:38 21,8 C 3,7 C 1,7 C 64 % 0 % 993 hPa 0,0 l/m 3,0 km/h (1 Bft)
28.02.2010 02:41 21,8 C 3,7 C 2,0 C 64 % 0 % 992 hPa 0,0 l/m 4,2 km/h (1 Bft)
28.02.2010 02:44 21,8 C 3,7 C 2,0 C 64 % 0 % 992 hPa 0,0 l/m 4,1 km/h (1 Bft)
28.02.2010 02:47 21,8 C 3,7 C 2,5 C 63 % 0 % 992 hPa 0,0 l/m 4,7 km/h (1 Bft)
28.02.2010 02:50 21,8 C 3,7 C 2,5 C 64 % 0 % 992 hPa 0,0 l/m 4,7 km/h (1 Bft)
28.02.2010 02:56 21,8 C 3,7 C 2,3 C 64 % 0 % 992 hPa 0,0 l/m 0,6 km/h (0 Bft)
28.02.2010 02:59 21,8 C 3,8 C 2,3 C 64 % 0 % 992 hPa 0,0 l/m 7,4 km/h (2 Bft)
28.02.2010 03:02 21,8 C 3,8 C 2,0 C 64 % 0 % 992 hPa 0,0 l/m 1,5 km/h (1 Bft)
28.02.2010 03:05 21,8 C 3,7 C 1,4 C 64 % 0 % 992 hPa 0,0 l/m 6,6 km/h (2 Bft)
28.02.2010 03:08 21,8 C 3,5 C 1,7 C 65 % 0 % 992 hPa 0,0 l/m 4,6 km/h (1 Bft)
28.02.2010 03:11 21,8 C 3,5 C 1,7 C 65 % 0 % 992 hPa 0,0 l/m 5,7 km/h (1 Bft)
28.02.2010 03:14 21,8 C 3,4 C 1,7 C 65 % 0 % 992 hPa 0,0 l/m 11,1 km/h (2 Bft)
28.02.2010 03:17 21,8 C 3,3 C 1,7 C 65 % 0 % 992 hPa 0,0 l/m 9,9 km/h (2 Bft)
28.02.2010 03:20 21,8 C 3,2 C 1,7 C 65 % 0 % 992 hPa 0,0 l/m 9,9 km/h (2 Bft)
28.02.2010 03:23 21,8 C 3,1 C 1,4 C 66 % 0 % 992 hPa 0,0 l/m 8,6 km/h (2 Bft)
28.02.2010 03:26 21,8 C 3,1 C 1,3 C 66 % 0 % 992 hPa 0,0 l/m 6,1 km/h (2 Bft)
28.02.2010 03:29 21,8 C 3,1 C 0,9 C 66 % 0 % 992 hPa 0,0 l/m 5,0 km/h (1 Bft)
28.02.2010 03:32 21,8 C 3,0 C 0,7 C 66 % 0 % 992 hPa 0,0 l/m 1,8 km/h (1 Bft)
28.02.2010 03:35 21,8 C 3,0 C 0,8 C 66 % 0 % 992 hPa 0,0 l/m 3,6 km/h (1 Bft)
28.02.2010 03:38 21,8 C 3,0 C 0,7 C 65 % 0 % 991 hPa 0,0 l/m 6,2 km/h (2 Bft)
28.02.2010 03:41 21,8 C 3,0 C 0,7 C 65 % 0 % 991 hPa 0,0 l/m 1,8 km/h (1 Bft)
28.02.2010 03:44 21,8 C 3,0 C 0,6 C 65 % 0 % 991 hPa 0,0 l/m 4,3 km/h (1 Bft)
28.02.2010 03:47 21,8 C 2,9 C 1,0 C 65 % 0 % 991 hPa 0,0 l/m 3,5 km/h (1 Bft)
28.02.2010 03:50 21,8 C 3,0 C 1,2 C 65 % 0 % 991 hPa 0,0 l/m 7,2 km/h (2 Bft)
28.02.2010 03:54 21,8 C 3,0 C 1,5 C 65 % 0 % 991 hPa 0,0 l/m 10,3 km/h (2 Bft)
28.02.2010 03:57 21,8 C 3,0 C 1,5 C 65 % 0 % 991 hPa 0,0 l/m 7,6 km/h (2 Bft)
28.02.2010 04:00 21,8 C 3,0 C 1,4 C 65 % 0 % 991 hPa 0,0 l/m 5,0 km/h (1 Bft)
28.02.2010 04:03 21,8 C 3,0 C 1,4 C 65 % 0 % 991 hPa 0,0 l/m 5,0 km/h (1 Bft)
28.02.2010 04:06 21,8 C 3,0 C 1,4 C 65 % 0 % 991 hPa 0,0 l/m 5,7 km/h (1 Bft)
28.02.2010 04:09 21,8 C 3,0 C 2,0 C 65 % 0 % 991 hPa 0,0 l/m 5,7 km/h (1 Bft)
28.02.2010 04:12 21,8 C 3,0 C 1,9 C 65 % 0 % 991 hPa 0,0 l/m 4,6 km/h (1 Bft)
28.02.2010 04:15 21,8 C 3,0 C 2,1 C 65 % 0 % 991 hPa 0,0 l/m 5,6 km/h (1 Bft)
28.02.2010 04:18 21,8 C 3,0 C 2,1 C 65 % 0 % 991 hPa 0,0 l/m 7,6 km/h (2 Bft)
28.02.2010 04:21 21,8 C 3,0 C 2,1 C 65 % 0 % 991 hPa 0,0 l/m 4,3 km/h (1 Bft)
28.02.2010 04:24 21,8 C 3,0 C 2,1 C 65 % 0 % 991 hPa 0,0 l/m 7,0 km/h (2 Bft)
28.02.2010 04:27 21,8 C 3,0 C 1,9 C 65 % 0 % 991 hPa 0,0 l/m 4,5 km/h (1 Bft)
28.02.2010 04:30 21,8 C 3,0 C 1,8 C 65 % 0 % 991 hPa 0,0 l/m 5,4 km/h (1 Bft)
28.02.2010 04:33 21,8 C 3,0 C 1,7 C 65 % 0 % 991 hPa 0,0 l/m 5,4 km/h (1 Bft)
28.02.2010 04:36 21,8 C 3,0 C 1,8 C 65 % 0 % 991 hPa 0,0 l/m 7,4 km/h (2 Bft)
28.02.2010 04:39 21,8 C 3,0 C 1,9 C 65 % 0 % 991 hPa 0,0 l/m 7,0 km/h (2 Bft)
28.02.2010 04:42 21,8 C 3,0 C 1,7 C 65 % 0 % 991 hPa 0,0 l/m 8,5 km/h (2 Bft)
28.02.2010 04:45 21,8 C 3,0 C 1,5 C 65 % 0 % 991 hPa 0,0 l/m 5,3 km/h (1 Bft)
28.02.2010 04:48 21,8 C 3,0 C 1,5 C 65 % 0 % 991 hPa 0,0 l/m 6,8 km/h (2 Bft)
28.02.2010 04:51 21,8 C 3,0 C 1,9 C 65 % 0 % 991 hPa 0,0 l/m 7,2 km/h (2 Bft)
28.02.2010 04:54 21,8 C 3,1 C 2,1 C 65 % 0 % 990 hPa 0,0 l/m 9,7 km/h (2 Bft)
28.02.2010 04:57 21,8 C 3,1 C 2,1 C 65 % 0 % 990 hPa 0,0 l/m 10,3 km/h (2 Bft)
28.02.2010 05:00 21,8 C 3,1 C 2,0 C 65 % 0 % 990 hPa 0,0 l/m 12,5 km/h (3 Bft)
28.02.2010 05:03 21,8 C 3,1 C 2,1 C 66 % 0 % 990 hPa 0,0 l/m 11,7 km/h (2 Bft)
28.02.2010 05:06 21,8 C 3,1 C 2,3 C 65 % 0 % 990 hPa 0,0 l/m 12,3 km/h (3 Bft)
28.02.2010 05:09 21,8 C 3,1 C 2,3 C 65 % 0 % 990 hPa 0,0 l/m 12,3 km/h (3 Bft)
28.02.2010 05:12 21,8 C 3,1 C 2,3 C 65 % 0 % 990 hPa 0,0 l/m 13,8 km/h (3 Bft)
28.02.2010 05:15 21,8 C 3,1 C 2,2 C 65 % 0 % 990 hPa 0,0 l/m 11,6 km/h (2 Bft)
28.02.2010 05:18 21,8 C 3,2 C 2,2 C 66 % 0 % 990 hPa 0,0 l/m 2,4 km/h (1 Bft)
28.02.2010 05:21 21,8 C 3,1 C 2,2 C 66 % 0 % 990 hPa 0,0 l/m 0,1 km/h (0 Bft)
28.02.2010 05:24 21,8 C 3,1 C 2,1 C 66 % 0 % 990 hPa 0,0 l/m 0,4 km/h (0 Bft)
28.02.2010 05:27 21,8 C 3,1 C 2,3 C 65 % 0 % 990 hPa 0,0 l/m 7,6 km/h (2 Bft)
28.02.2010 05:30 21,8 C 3,1 C 2,6 C 65 % 0 % 990 hPa 0,0 l/m 9,5 km/h (2 Bft)
28.02.2010 05:33 21,8 C 3,3 C 2,3 C 65 % 0 % 990 hPa 0,0 l/m 7,3 km/h (2 Bft)
28.02.2010 05:36 21,8 C 3,3 C 1,8 C 67 % 0 % 990 hPa 0,3 l/m 7,3 km/h (2 Bft)
28.02.2010 05:39 21,8 C 3,3 C 1,4 C 67 % 0 % 990 hPa 0,0 l/m 6,1 km/h (2 Bft)
28.02.2010 05:42 21,8 C 3,2 C 1,4 C 69 % 0 % 990 hPa 0,0 l/m 0,0 km/h (0 Bft)
28.02.2010 05:45 21,8 C 3,1 C 1,4 C 70 % 0 % 990 hPa 0,0 l/m 0,0 km/h (0 Bft)
28.02.2010 05:48 21,8 C 2,9 C 1,4 C 71 % 0 % 990 hPa 0,0 l/m 0,0 km/h (0 Bft)
28.02.2010 05:51 21,8 C 2,8 C 1,3 C 73 % 0 % 990 hPa 0,3 l/m 0,0 km/h (0 Bft)
28.02.2010 05:54 21,8 C 2,7 C 1,2 C 73 % 0 % 990 hPa 0,0 l/m 0,0 km/h (0 Bft)
28.02.2010 05:57 21,8 C 2,6 C 1,3 C 77 % 0 % 990 hPa 0,0 l/m 2,4 km/h (1 Bft)
28.02.2010 06:00 21,8 C 2,4 C 1,2 C 77 % 0 % 990 hPa 0,0 l/m 0,3 km/h (0 Bft)
28.02.2010 06:03 21,8 C 2,3 C 1,1 C 78 % 0 % 990 hPa 0,0 l/m 0,1 km/h (0 Bft)
28.02.2010 06:06 21,8 C 2,3 C 1,0 C 78 % 0 % 990 hPa 0,0 l/m 3,1 km/h (1 Bft)
28.02.2010 06:09 21,8 C 2,0 C 0,4 C 79 % 0 % 990 hPa 0,0 l/m 11,8 km/h (2 Bft)
28.02.2010 06:12 21,8 C 2,0 C 0,4 C 79 % 0 % 990 hPa 0,0 l/m 11,8 km/h (2 Bft)
28.02.2010 06:15 21,8 C 1,9 C 0,4 C 79 % 0 % 990 hPa 0,0 l/m 11,1 km/h (2 Bft)
28.02.2010 06:18 21,8 C 1,9 C 0,3 C 80 % 0 % 990 hPa 0,0 l/m 11,1 km/h (2 Bft)
28.02.2010 06:21 21,8 C 1,9 C 0,3 C 80 % 0 % 990 hPa 0,0 l/m 12,1 km/h (2 Bft)
28.02.2010 06:24 21,8 C 1,9 C 0,3 C 80 % 0 % 990 hPa 0,0 l/m 11,6 km/h (2 Bft)
28.02.2010 06:27 21,8 C 1,9 C 0,3 C 79 % 0 % 990 hPa 0,0 l/m 11,6 km/h (2 Bft)
28.02.2010 06:30 21,8 C 1,9 C 0,8 C 80 % 0 % 990 hPa 0,0 l/m 0,1 km/h (0 Bft)
28.02.2010 06:33 21,8 C 1,8 C 0,9 C 79 % 0 % 990 hPa 0,0 l/m 0,0 km/h (0 Bft)
28.02.2010 06:36 21,8 C 1,7 C 1,0 C 79 % 0 % 990 hPa 0,0 l/m 0,0 km/h (0 Bft)
28.02.2010 06:39 21,8 C 1,7 C 1,0 C 80 % 0 % 990 hPa 0,3 l/m 0,4 km/h (0 Bft)
28.02.2010 06:42 21,8 C 1,6 C 1,0 C 81 % 0 % 990 hPa 0,0 l/m 0,1 km/h (0 Bft)
28.02.2010 06:45 21,8 C 1,5 C 1,0 C 82 % 0 % 990 hPa 0,0 l/m 0,0 km/h (0 Bft)
28.02.2010 06:48 21,8 C 1,6 C 1,1 C 81 % 0 % 990 hPa 0,0 l/m 0,0 km/h (0 Bft)
28.02.2010 06:51 21,8 C 1,6 C 1,1 C 81 % 0 % 990 hPa 0,0 l/m 0,0 km/h (0 Bft)
28.02.2010 06:54 21,8 C 1,6 C 1,2 C 81 % 0 % 990 hPa 0,0 l/m 0,0 km/h (0 Bft)
28.02.2010 06:57 21,8 C 1,6 C 1,2 C 82 % 0 % 990 hPa 0,0 l/m 0,0 km/h (0 Bft)
28.02.2010 07:00 21,8 C 1,6 C 1,2 C 83 % 0 % 990 hPa 0,0 l/m 0,0 km/h (0 Bft)
28.02.2010 07:03 21,8 C 1,6 C 1,2 C 83 % 0 % 990 hPa 0,0 l/m 0,0 km/h (0 Bft)
28.02.2010 07:06 21,8 C 1,7 C 1,3 C 82 % 0 % 990 hPa 0,0 l/m 0,1 km/h (0 Bft)
28.02.2010 07:09 21,8 C 1,7 C 1,3 C 82 % 0 % 990 hPa 0,0 l/m 0,0 km/h (0 Bft)
28.02.2010 07:12 21,8 C 1,8 C 1,3 C 83 % 0 % 990 hPa 0,0 l/m 0,0 km/h (0 Bft)
28.02.2010 07:15 21,8 C 1,8 C 1,4 C 83 % 0 % 990 hPa 0,0 l/m 0,0 km/h (0 Bft)
28.02.2010 07:18 21,8 C 1,8 C 1,4 C 82 % 0 % 990 hPa 0,0 l/m 0,0 km/h (0 Bft)
28.02.2010 07:21 21,8 C 1,7 C 1,4 C 82 % 0 % 990 hPa 0,0 l/m 0,0 km/h (0 Bft)
28.02.2010 07:24 21,8 C 1,7 C 1,4 C 82 % 0 % 990 hPa 0,0 l/m 0,0 km/h (0 Bft)
28.02.2010 07:27 21,8 C 1,9 C 1,6 C 83 % 0 % 989 hPa 0,0 l/m 0,0 km/h (0 Bft)
28.02.2010 07:30 21,8 C 1,9 C 1,6 C 83 % 0 % 989 hPa 0,0 l/m 0,0 km/h (0 Bft)
28.02.2010 07:33 21,8 C 2,0 C 1,6 C 83 % 0 % 989 hPa 0,0 l/m 0,0 km/h (0 Bft)
28.02.2010 07:36 21,8 C 2,1 C 1,6 C 83 % 0 % 989 hPa 0,0 l/m 0,0 km/h (0 Bft)
28.02.2010 07:39 21,8 C 2,1 C 1,8 C 83 % 0 % 990 hPa 0,0 l/m 0,0 km/h (0 Bft)
28.02.2010 07:42 21,8 C 2,2 C 2,1 C 83 % 0 % 989 hPa 0,0 l/m 0,0 km/h (0 Bft)
28.02.2010 07:45 21,8 C 2,2 C 2,0 C 82 % 0 % 989 hPa 0,0 l/m 0,0 km/h (0 Bft)
28.02.2010 07:48 21,8 C 2,2 C 2,2 C 82 % 0 % 989 hPa 0,0 l/m 0,0 km/h (0 Bft)
28.02.2010 07:51 21,8 C 2,2 C 2,4 C 82 % 0 % 989 hPa 0,0 l/m 0,0 km/h (0 Bft)
28.02.2010 07:54 21,8 C 2,2 C 2,5 C 82 % 0 % 989 hPa 0,0 l/m 0,0 km/h (0 Bft)
28.02.2010 07:57 21,8 C 2,2 C 2,6 C 82 % 0 % 989 hPa 0,0 l/m 0,0 km/h (0 Bft)
28.02.2010 08:00 21,8 C 2,5 C 2,3 C 83 % 0 % 989 hPa 0,0 l/m 0,0 km/h (0 Bft)
28.02.2010 08:03 21,8 C 2,5 C 2,3 C 83 % 0 % 989 hPa 0,0 l/m 0,0 km/h (0 Bft)
28.02.2010 08:06 21,8 C 2,6 C 3,3 C 83 % 0 % 989 hPa 0,0 l/m 0,0 km/h (0 Bft)
28.02.2010 08:09 21,8 C 2,6 C 3,9 C 83 % 0 % 989 hPa 0,0 l/m 0,0 km/h (0 Bft)
28.02.2010 08:12 21,9 C 2,7 C 6,3 C 82 % 0 % 989 hPa 0,0 l/m 0,0 km/h (0 Bft)
28.02.2010 08:15 21,9 C 2,8 C 9,0 C 82 % 0 % 989 hPa 0,0 l/m 0,0 km/h (0 Bft)
28.02.2010 08:18 22,0 C 2,9 C 9,4 C 82 % 0 % 989 hPa 0,0 l/m 0,0 km/h (0 Bft)
28.02.2010 08:21 22,1 C 3,1 C 9,9 C 82 % 0 % 989 hPa 0,0 l/m 0,0 km/h (0 Bft)
28.02.2010 08:24 22,1 C 3,1 C 9,3 C 81 % 0 % 989 hPa 0,0 l/m 0,0 km/h (0 Bft)
28.02.2010 08:27 22,2 C 3,2 C 7,7 C 80 % 0 % 989 hPa 0,0 l/m 0,0 km/h (0 Bft)
28.02.2010 08:30 22,2 C 3,4 C 7,9 C 79 % 0 % 989 hPa 0,0 l/m 0,5 km/h (0 Bft)
28.02.2010 08:33 22,2 C 3,6 C 6,0 C 80 % 0 % 989 hPa 0,0 l/m 0,5 km/h (0 Bft)
28.02.2010 08:36 22,2 C 3,8 C 6,7 C 79 % 0 % 989 hPa 0,0 l/m 0,0 km/h (0 Bft)
28.02.2010 08:39 22,2 C 3,8 C 5,3 C 76 % 0 % 989 hPa 0,0 l/m 0,7 km/h (0 Bft)
28.02.2010 08:42 22,2 C 3,7 C 5,3 C 78 % 0 % 990 hPa 0,0 l/m 4,0 km/h (1 Bft)
28.02.2010 08:45 22,2 C 3,7 C 4,5 C 79 % 0 % 990 hPa 0,0 l/m 0,0 km/h (0 Bft)
28.02.2010 08:48 22,2 C 3,6 C 4,1 C 80 % 0 % 990 hPa 0,0 l/m 0,0 km/h (0 Bft)
28.02.2010 08:51 21,7 C 3,6 C 4,4 C 80 % 0 % 990 hPa 0,0 l/m 0,0 km/h (0 Bft)
28.02.2010 08:54 21,1 C 3,7 C 4,2 C 80 % 0 % 990 hPa 0,0 l/m 0,1 km/h (0 Bft)
28.02.2010 08:57 20,9 C 3,9 C 4,1 C 80 % 0 % 990 hPa 0,0 l/m 3,9 km/h (1 Bft)
28.02.2010 09:00 21,0 C 3,9 C 3,8 C 80 % 0 % 990 hPa 0,0 l/m 0,4 km/h (0 Bft)
28.02.2010 09:03 21,2 C 4,0 C 3,3 C 79 % 0 % 990 hPa 0,0 l/m 0,9 km/h (0 Bft)
28.02.2010 09:06 21,3 C 4,1 C 3,4 C 80 % 0 % 990 hPa 0,0 l/m 0,3 km/h (0 Bft)
28.02.2010 09:09 21,4 C 4,2 C 3,8 C 79 % 0 % 990 hPa 0,0 l/m 0,3 km/h (0 Bft)
28.02.2010 09:12 21,6 C 4,3 C 4,2 C 79 % 0 % 990 hPa 0,0 l/m 3,1 km/h (1 Bft)
28.02.2010 09:15 21,6 C 4,3 C 4,6 C 79 % 0 % 990 hPa 0,0 l/m 0,1 km/h (0 Bft)
28.02.2010 09:18 20,8 C 4,3 C 4,0 C 78 % 0 % 990 hPa 0,0 l/m 0,1 km/h (0 Bft)
28.02.2010 09:21 19,9 C 4,4 C 4,1 C 78 % 0 % 990 hPa 0,0 l/m 5,6 km/h (1 Bft)
28.02.2010 09:24 19,1 C 4,4 C 4,1 C 78 % 0 % 990 hPa 0,0 l/m 3,6 km/h (1 Bft)
28.02.2010 09:27 18,4 C 4,4 C 3,9 C 77 % 0 % 990 hPa 0,0 l/m 4,7 km/h (1 Bft)
28.02.2010 09:30 17,8 C 4,5 C 3,8 C 77 % 0 % 990 hPa 0,0 l/m 2,4 km/h (1 Bft)
28.02.2010 09:33 17,2 C 4,5 C 4,1 C 77 % 0 % 990 hPa 0,0 l/m 6,1 km/h (2 Bft)
28.02.2010 09:36 16,8 C 4,6 C 5,2 C 77 % 0 % 990 hPa 0,0 l/m 5,4 km/h (1 Bft)
28.02.2010 09:39 16,4 C 4,7 C 6,1 C 77 % 0 % 990 hPa 0,0 l/m 0,3 km/h (0 Bft)
28.02.2010 09:42 16,6 C 4,7 C 5,0 C 76 % 0 % 990 hPa 0,0 l/m 0,7 km/h (0 Bft)
28.02.2010 09:45 17,2 C 4,7 C 4,8 C 76 % 0 % 990 hPa 0,0 l/m 1,0 km/h (0 Bft)
28.02.2010 09:48 17,8 C 4,7 C 4,2 C 76 % 0 % 990 hPa 0,0 l/m 7,3 km/h (2 Bft)
28.02.2010 09:51 18,4 C 5,2 C 4,2 C 75 % 0 % 990 hPa 0,0 l/m 10,2 km/h (2 Bft)
28.02.2010 09:54 18,4 C 5,3 C 4,2 C 74 % 0 % 990 hPa 0,0 l/m 9,0 km/h (2 Bft)
28.02.2010 09:57 19,2 C 5,4 C 5,0 C 74 % 0 % 990 hPa 0,0 l/m 3,7 km/h (1 Bft)
28.02.2010 10:00 19,6 C 5,4 C 7,0 C 73 % 0 % 990 hPa 0,0 l/m 5,4 km/h (1 Bft)
28.02.2010 10:03 20,0 C 5,6 C 9,0 C 72 % 0 % 990 hPa 0,0 l/m 5,9 km/h (2 Bft)
28.02.2010 10:06 20,2 C 5,6 C 11,0 C 72 % 0 % 990 hPa 0,0 l/m 7,5 km/h (2 Bft)
28.02.2010 10:09 20,4 C 5,5 C 11,0 C 71 % 0 % 990 hPa 0,0 l/m 7,5 km/h (2 Bft)
28.02.2010 10:12 20,5 C 5,6 C 11,0 C 72 % 0 % 990 hPa 0,0 l/m 4,6 km/h (1 Bft)
28.02.2010 10:15 20,7 C 5,8 C 10,5 C 71 % 0 % 990 hPa 0,0 l/m 2,5 km/h (1 Bft)
28.02.2010 10:18 20,8 C 5,9 C 11,2 C 71 % 0 % 990 hPa 0,0 l/m 8,2 km/h (2 Bft)
28.02.2010 10:21 20,9 C 5,9 C 9,2 C 71 % 0 % 990 hPa 0,0 l/m 8,3 km/h (2 Bft)
28.02.2010 10:24 21,0 C 6,1 C 7,4 C 70 % 0 % 990 hPa 0,0 l/m 6,2 km/h (2 Bft)
28.02.2010 10:27 21,0 C 6,1 C 6,2 C 69 % 0 % 990 hPa 0,0 l/m 13,0 km/h (3 Bft)
28.02.2010 10:30 21,2 C 6,1 C 6,0 C 69 % 0 % 990 hPa 0,0 l/m 10,1 km/h (2 Bft)
28.02.2010 10:33 21,3 C 6,2 C 6,0 C 69 % 0 % 990 hPa 0,0 l/m 7,2 km/h (2 Bft)
28.02.2010 10:36 21,4 C 6,3 C 6,5 C 69 % 0 % 990 hPa 0,0 l/m 6,0 km/h (2 Bft)
28.02.2010 10:39 21,4 C 6,4 C 6,6 C 68 % 0 % 990 hPa 0,0 l/m 6,0 km/h (2 Bft)
28.02.2010 10:42 21,4 C 6,5 C 8,2 C 67 % 0 % 990 hPa 0,0 l/m 6,2 km/h (2 Bft)
28.02.2010 10:45 21,4 C 6,7 C 10,5 C 68 % 0 % 990 hPa 0,0 l/m 10,3 km/h (2 Bft)
28.02.2010 10:48 21,6 C 6,8 C 9,4 C 68 % 0 % 990 hPa 0,0 l/m 9,8 km/h (2 Bft)
28.02.2010 10:51 21,6 C 6,8 C 8,3 C 66 % 0 % 990 hPa 0,0 l/m 4,3 km/h (1 Bft)
28.02.2010 10:54 21,6 C 6,8 C 6,8 C 67 % 0 % 990 hPa 0,0 l/m 4,3 km/h (1 Bft)
28.02.2010 10:57 21,8 C 6,7 C 6,0 C 67 % 0 % 990 hPa 0,0 l/m 13,7 km/h (3 Bft)
28.02.2010 11:00 21,8 C 6,7 C 6,0 C 69 % 0 % 990 hPa 0,0 l/m 10,0 km/h (2 Bft)
28.02.2010 11:03 21,8 C 6,6 C 6,4 C 66 % 0 % 990 hPa 0,0 l/m 13,3 km/h (3 Bft)
28.02.2010 11:06 21,8 C 6,7 C 6,5 C 67 % 0 % 990 hPa 0,0 l/m 8,7 km/h (2 Bft)
28.02.2010 11:09 21,9 C 6,6 C 5,9 C 66 % 0 % 990 hPa 0,0 l/m 11,8 km/h (2 Bft)
28.02.2010 11:12 21,9 C 6,6 C 5,8 C 66 % 0 % 990 hPa 0,0 l/m 11,4 km/h (2 Bft)
28.02.2010 11:15 21,9 C 6,6 C 5,8 C 67 % 0 % 990 hPa 0,0 l/m 10,3 km/h (2 Bft)
28.02.2010 11:18 21,8 C 6,6 C 6,1 C 67 % 0 % 990 hPa 0,0 l/m 6,3 km/h (2 Bft)
28.02.2010 11:21 21,8 C 6,6 C 6,7 C 66 % 0 % 990 hPa 0,0 l/m 6,1 km/h (2 Bft)
28.02.2010 11:24 21,8 C 6,7 C 6,8 C 67 % 0 % 990 hPa 0,0 l/m 8,0 km/h (2 Bft)
28.02.2010 11:27 21,8 C 6,8 C 7,2 C 66 % 0 % 990 hPa 0,0 l/m 8,9 km/h (2 Bft)
28.02.2010 11:30 21,8 C 6,9 C 7,2 C 66 % 0 % 990 hPa 0,0 l/m 7,9 km/h (2 Bft)
28.02.2010 11:33 21,8 C 6,9 C 7,6 C 66 % 0 % 990 hPa 0,0 l/m 5,7 km/h (1 Bft)
28.02.2010 11:36 21,8 C 7,0 C 8,0 C 67 % 0 % 990 hPa 0,0 l/m 6,1 km/h (2 Bft)
28.02.2010 11:39 21,8 C 7,2 C 8,4 C 67 % 0 % 990 hPa 0,0 l/m 6,3 km/h (2 Bft)
28.02.2010 11:42 21,8 C 7,2 C 8,3 C 66 % 0 % 990 hPa 0,0 l/m 5,4 km/h (1 Bft)
28.02.2010 11:45 21,8 C 7,2 C 7,3 C 65 % 0 % 990 hPa 0,0 l/m 6,8 km/h (2 Bft)
28.02.2010 11:48 21,8 C 7,2 C 7,3 C 66 % 0 % 990 hPa 0,0 l/m 3,0 km/h (1 Bft)
28.02.2010 11:51 21,8 C 7,2 C 7,4 C 65 % 0 % 990 hPa 0,0 l/m 1,1 km/h (1 Bft)
28.02.2010 11:54 21,8 C 7,2 C 7,2 C 65 % 0 % 990 hPa 0,0 l/m 5,0 km/h (1 Bft)
28.02.2010 11:57 21,8 C 7,3 C 7,1 C 65 % 0 % 990 hPa 0,0 l/m 4,6 km/h (1 Bft)
28.02.2010 12:00 21,9 C 7,4 C 7,1 C 66 % 0 % 990 hPa 0,0 l/m 4,2 km/h (1 Bft)
28.02.2010 12:03 21,9 C 7,5 C 7,2 C 65 % 0 % 990 hPa 0,0 l/m 3,4 km/h (1 Bft)
28.02.2010 12:06 21,9 C 7,4 C 7,3 C 65 % 0 % 990 hPa 0,0 l/m 5,5 km/h (1 Bft)
28.02.2010 12:09 21,8 C 7,5 C 7,4 C 65 % 0 % 990 hPa 0,0 l/m 9,2 km/h (2 Bft)
28.02.2010 12:12 21,8 C 7,6 C 8,2 C 64 % 0 % 990 hPa 0,0 l/m 1,9 km/h (1 Bft)
28.02.2010 12:15 21,8 C 7,6 C 8,1 C 64 % 0 % 990 hPa 0,0 l/m 6,3 km/h (2 Bft)
28.02.2010 12:18 21,8 C 7,6 C 7,8 C 64 % 0 % 990 hPa 0,0 l/m 9,0 km/h (2 Bft)
28.02.2010 12:21 21,8 C 7,8 C 7,8 C 63 % 0 % 990 hPa 0,0 l/m 10,4 km/h (2 Bft)
28.02.2010 12:24 21,8 C 7,8 C 8,2 C 63 % 0 % 990 hPa 0,0 l/m 10,2 km/h (2 Bft)
28.02.2010 12:27 21,8 C 7,9 C 8,2 C 62 % 0 % 990 hPa 0,0 l/m 21,3 km/h (4 Bft)
28.02.2010 12:30 21,8 C 8,0 C 7,6 C 61 % 0 % 990 hPa 0,0 l/m 16,0 km/h (3 Bft)
28.02.2010 12:33 21,7 C 8,0 C 7,7 C 61 % 0 % 990 hPa 0,0 l/m 14,8 km/h (3 Bft)
28.02.2010 12:36 21,7 C 7,9 C 7,6 C 60 % 0 % 990 hPa 0,0 l/m 14,8 km/h (3 Bft)
28.02.2010 12:39 21,7 C 7,9 C 7,3 C 60 % 0 % 990 hPa 0,0 l/m 23,6 km/h (4 Bft)
28.02.2010 12:42 21,7 C 7,9 C 7,5 C 60 % 0 % 990 hPa 0,0 l/m 23,6 km/h (4 Bft)
28.02.2010 12:45 21,7 C 7,9 C 7,6 C 60 % 0 % 990 hPa 0,0 l/m 20,1 km/h (4 Bft)
28.02.2010 12:48 21,8 C 7,9 C 7,6 C 60 % 0 % 990 hPa 0,0 l/m 19,1 km/h (3 Bft)
28.02.2010 12:51 21,9 C 8,0 C 7,6 C 60 % 0 % 990 hPa 0,0 l/m 18,8 km/h (3 Bft)
28.02.2010 12:54 22,0 C 8,0 C 7,6 C 60 % 0 % 990 hPa 0,0 l/m 18,8 km/h (3 Bft)
28.02.2010 12:57 22,2 C 8,0 C 8,0 C 60 % 0 % 990 hPa 0,0 l/m 12,0 km/h (2 Bft)
28.02.2010 13:00 22,2 C 8,0 C 8,0 C 60 % 0 % 990 hPa 0,0 l/m 10,0 km/h (2 Bft)
28.02.2010 13:03 22,2 C 8,0 C 7,6 C 62 % 0 % 990 hPa 0,0 l/m 10,0 km/h (2 Bft)
28.02.2010 13:06 22,3 C 8,1 C 7,4 C 62 % 0 % 989 hPa 0,0 l/m 17,6 km/h (3 Bft)
28.02.2010 13:09 22,3 C 8,0 C 7,5 C 62 % 0 % 989 hPa 0,0 l/m 17,6 km/h (3 Bft)
28.02.2010 13:12 22,3 C 8,0 C 7,8 C 61 % 0 % 989 hPa 0,0 l/m 12,6 km/h (3 Bft)
28.02.2010 13:15 22,3 C 8,0 C 7,8 C 62 % 0 % 989 hPa 0,0 l/m 14,1 km/h (3 Bft)
28.02.2010 13:18 22,2 C 8,1 C 9,1 C 62 % 0 % 989 hPa 0,0 l/m 9,8 km/h (2 Bft)
28.02.2010 13:21 21,9 C 8,2 C 8,5 C 62 % 0 % 989 hPa 0,0 l/m 10,5 km/h (2 Bft)
28.02.2010 13:24 21,0 C 8,3 C 7,9 C 62 % 0 % 989 hPa 0,0 l/m 11,9 km/h (2 Bft)
28.02.2010 13:27 20,2 C 8,4 C 7,8 C 62 % 0 % 989 hPa 0,0 l/m 10,8 km/h (2 Bft)
28.02.2010 13:30 19,5 C 8,3 C 7,7 C 61 % 0 % 989 hPa 0,0 l/m 8,9 km/h (2 Bft)
28.02.2010 13:33 18,5 C 8,4 C 7,5 C 61 % 0 % 989 hPa 0,0 l/m 7,6 km/h (2 Bft)
28.02.2010 13:36 18,3 C 8,4 C 7,6 C 61 % 0 % 989 hPa 0,0 l/m 9,3 km/h (2 Bft)
28.02.2010 13:39 18,5 C 8,3 C 7,6 C 62 % 0 % 989 hPa 0,0 l/m 7,6 km/h (2 Bft)
28.02.2010 13:42 19,0 C 8,4 C 7,3 C 62 % 0 % 989 hPa 0,0 l/m 7,6 km/h (2 Bft)
28.02.2010 13:45 19,4 C 8,3 C 7,3 C 62 % 0 % 989 hPa 0,0 l/m 8,7 km/h (2 Bft)
28.02.2010 13:48 19,8 C 8,4 C 7,5 C 62 % 0 % 989 hPa 0,0 l/m 7,1 km/h (2 Bft)
28.02.2010 13:51 20,1 C 8,5 C 8,1 C 62 % 0 % 989 hPa 0,0 l/m 8,7 km/h (2 Bft)
28.02.2010 13:54 20,3 C 8,4 C 8,5 C 62 % 0 % 989 hPa 0,0 l/m 9,8 km/h (2 Bft)
28.02.2010 13:57 20,5 C 8,4 C 8,5 C 62 % 0 % 989 hPa 0,0 l/m 12,5 km/h (3 Bft)
28.02.2010 14:00 20,8 C 8,5 C 8,7 C 61 % 0 % 989 hPa 0,0 l/m 9,5 km/h (2 Bft)
28.02.2010 14:03 20,9 C 8,5 C 8,7 C 61 % 0 % 989 hPa 0,0 l/m 10,3 km/h (2 Bft)
28.02.2010 14:06 20,9 C 8,6 C 8,5 C 61 % 0 % 989 hPa 0,0 l/m 13,5 km/h (3 Bft)
28.02.2010 14:09 21,0 C 8,6 C 8,0 C 60 % 0 % 989 hPa 0,0 l/m 13,5 km/h (3 Bft)
28.02.2010 14:12 21,1 C 8,5 C 8,0 C 61 % 0 % 989 hPa 0,0 l/m 12,8 km/h (3 Bft)
28.02.2010 14:15 21,2 C 8,5 C 8,1 C 61 % 0 % 989 hPa 0,0 l/m 13,6 km/h (3 Bft)
28.02.2010 14:18 21,2 C 8,4 C 7,8 C 61 % 0 % 989 hPa 0,0 l/m 5,9 km/h (2 Bft)
28.02.2010 14:21 21,2 C 8,4 C 7,5 C 61 % 0 % 989 hPa 0,0 l/m 11,5 km/h (2 Bft)
28.02.2010 14:24 21,2 C 8,4 C 7,7 C 61 % 0 % 989 hPa 0,0 l/m 7,0 km/h (2 Bft)
28.02.2010 14:27 21,2 C 8,4 C 7,9 C 61 % 0 % 989 hPa 0,0 l/m 10,3 km/h (2 Bft)
28.02.2010 14:30 21,3 C 8,4 C 8,1 C 61 % 0 % 990 hPa 0,0 l/m 2,3 km/h (1 Bft)
28.02.2010 14:33 21,3 C 8,3 C 8,0 C 61 % 0 % 990 hPa 0,0 l/m 2,9 km/h (1 Bft)
28.02.2010 14:36 21,4 C 8,3 C 7,9 C 61 % 0 % 989 hPa 0,0 l/m 1,3 km/h (1 Bft)
28.02.2010 14:39 21,4 C 8,3 C 7,6 C 62 % 0 % 990 hPa 0,0 l/m 4,2 km/h (1 Bft)
28.02.2010 14:42 21,4 C 8,2 C 7,6 C 62 % 0 % 990 hPa 0,0 l/m 0,3 km/h (0 Bft)
28.02.2010 14:45 21,4 C 8,2 C 7,2 C 62 % 0 % 990 hPa 0,0 l/m 0,1 km/h (0 Bft)
28.02.2010 14:48 21,4 C 8,2 C 7,0 C 62 % 0 % 990 hPa 0,0 l/m 0,2 km/h (0 Bft)
28.02.2010 14:51 21,5 C 8,2 C 6,9 C 62 % 0 % 990 hPa 0,0 l/m 3,4 km/h (1 Bft)
28.02.2010 14:54 21,6 C 8,1 C 6,8 C 62 % 0 % 990 hPa 0,0 l/m 1,5 km/h (1 Bft)
28.02.2010 14:57 21,6 C 8,1 C 6,8 C 62 % 0 % 990 hPa 0,0 l/m 5,0 km/h (1 Bft)
28.02.2010 15:00 21,6 C 8,1 C 6,6 C 62 % 0 % 990 hPa 0,0 l/m 5,8 km/h (2 Bft)
28.02.2010 15:03 21,6 C 7,9 C 6,3 C 63 % 0 % 990 hPa 0,0 l/m 2,2 km/h (1 Bft)
28.02.2010 15:06 21,8 C 7,9 C 6,2 C 63 % 0 % 990 hPa 0,0 l/m 0,1 km/h (0 Bft)
28.02.2010 15:09 21,8 C 7,9 C 5,8 C 63 % 0 % 990 hPa 0,0 l/m 0,1 km/h (0 Bft)
28.02.2010 15:12 21,8 C 7,7 C 5,6 C 65 % 0 % 990 hPa 0,0 l/m 9,1 km/h (2 Bft)
28.02.2010 15:15 21,9 C 7,2 C 5,4 C 66 % 0 % 991 hPa 0,0 l/m 10,6 km/h (2 Bft)
28.02.2010 15:18 22,0 C 6,9 C 5,2 C 67 % 0 % 991 hPa 0,0 l/m 13,5 km/h (3 Bft)
28.02.2010 15:21 22,0 C 6,6 C 5,2 C 68 % 0 % 991 hPa 0,0 l/m 12,3 km/h (3 Bft)
28.02.2010 15:24 22,0 C 6,6 C 5,5 C 67 % 0 % 991 hPa 0,0 l/m 11,1 km/h (2 Bft)
28.02.2010 15:27 22,1 C 6,6 C 5,6 C 67 % 0 % 991 hPa 0,0 l/m 4,8 km/h (1 Bft)
28.02.2010 15:30 22,0 C 6,8 C 5,5 C 67 % 0 % 991 hPa 0,0 l/m 7,0 km/h (2 Bft)
28.02.2010 15:33 22,1 C 6,7 C 5,6 C 67 % 0 % 991 hPa 0,0 l/m 7,0 km/h (2 Bft)
28.02.2010 15:36 22,1 C 6,8 C 5,7 C 66 % 0 % 991 hPa 0,0 l/m 7,0 km/h (2 Bft)
28.02.2010 15:39 22,1 C 6,8 C 6,0 C 66 % 0 % 991 hPa 0,0 l/m 0,0 km/h (0 Bft)
28.02.2010 15:42 22,2 C 6,8 C 5,8 C 67 % 0 % 991 hPa 0,0 l/m 6,1 km/h (2 Bft)
28.02.2010 15:45 22,2 C 6,9 C 5,7 C 66 % 0 % 992 hPa 0,0 l/m 0,0 km/h (0 Bft)
28.02.2010 15:48 22,2 C 6,9 C 5,7 C 66 % 0 % 992 hPa 0,0 l/m 1,8 km/h (1 Bft)
28.02.2010 15:51 22,1 C 6,9 C 5,4 C 67 % 0 % 991 hPa 0,0 l/m 4,0 km/h (1 Bft)
28.02.2010 15:54 21,6 C 6,9 C 4,9 C 68 % 0 % 991 hPa 0,0 l/m 4,6 km/h (1 Bft)
28.02.2010 15:57 20,7 C 6,9 C 5,2 C 68 % 0 % 991 hPa 0,0 l/m 0,7 km/h (0 Bft)
28.02.2010 16:00 20,7 C 6,6 C 5,2 C 68 % 0 % 991 hPa 0,0 l/m 0,1 km/h (0 Bft)
28.02.2010 16:03 19,0 C 6,6 C 5,1 C 68 % 0 % 992 hPa 0,0 l/m 0,6 km/h (0 Bft)
28.02.2010 16:06 18,4 C 6,6 C 5,2 C 68 % 0 % 992 hPa 0,0 l/m 0,0 km/h (0 Bft)
28.02.2010 16:09 18,3 C 6,6 C 5,0 C 69 % 0 % 992 hPa 0,0 l/m 0,4 km/h (0 Bft)
28.02.2010 16:12 18,8 C 6,7 C 5,0 C 68 % 0 % 992 hPa 0,0 l/m 5,9 km/h (2 Bft)
28.02.2010 16:15 19,2 C 6,8 C 5,0 C 68 % 0 % 992 hPa 0,0 l/m 6,7 km/h (2 Bft)
28.02.2010 16:18 19,6 C 6,8 C 5,1 C 68 % 0 % 992 hPa 0,0 l/m 2,5 km/h (1 Bft)
28.02.2010 16:21 20,0 C 6,6 C 5,0 C 68 % 0 % 992 hPa 0,0 l/m 0,2 km/h (0 Bft)
28.02.2010 16:24 20,2 C 6,6 C 4,8 C 69 % 0 % 992 hPa 0,0 l/m 2,2 km/h (1 Bft)
28.02.2010 16:27 20,4 C 6,6 C 5,0 C 70 % 0 % 992 hPa 0,0 l/m 0,7 km/h (0 Bft)
28.02.2010 16:30 20,6 C 6,5 C 5,0 C 70 % 0 % 992 hPa 0,0 l/m 0,7 km/h (0 Bft)
28.02.2010 16:33 20,7 C 6,5 C 4,8 C 69 % 0 % 992 hPa 0,0 l/m 0,1 km/h (0 Bft)
28.02.2010 16:36 21,0 C 6,4 C 5,0 C 70 % 0 % 992 hPa 0,0 l/m 4,9 km/h (1 Bft)
28.02.2010 16:39 21,0 C 6,4 C 4,7 C 69 % 0 % 992 hPa 0,0 l/m 9,2 km/h (2 Bft)
28.02.2010 16:42 21,1 C 6,4 C 4,8 C 70 % 0 % 992 hPa 0,0 l/m 2,2 km/h (1 Bft)
28.02.2010 16:45 21,2 C 6,3 C 4,9 C 70 % 0 % 992 hPa 0,0 l/m 0,1 km/h (0 Bft)
28.02.2010 16:48 21,2 C 6,4 C 4,9 C 70 % 0 % 992 hPa 0,0 l/m 0,4 km/h (0 Bft)
28.02.2010 16:51 21,3 C 6,4 C 4,8 C 71 % 0 % 992 hPa 0,0 l/m 4,2 km/h (1 Bft)
28.02.2010 16:54 21,4 C 6,4 C 4,8 C 71 % 0 % 992 hPa 0,0 l/m 4,6 km/h (1 Bft)
28.02.2010 16:57 21,5 C 6,2 C 4,5 C 71 % 0 % 992 hPa 0,0 l/m 4,5 km/h (1 Bft)
28.02.2010 17:00 21,6 C 6,1 C 4,6 C 71 % 0 % 992 hPa 0,0 l/m 2,4 km/h (1 Bft)
28.02.2010 17:03 21,7 C 6,1 C 4,6 C 71 % 0 % 992 hPa 0,0 l/m 2,7 km/h (1 Bft)
28.02.2010 17:06 21,8 C 6,0 C 4,7 C 72 % 0 % 992 hPa 0,0 l/m 3,5 km/h (1 Bft)
28.02.2010 17:09 21,9 C 6,0 C 4,8 C 72 % 0 % 992 hPa 0,0 l/m 3,5 km/h (1 Bft)
28.02.2010 17:12 22,0 C 6,0 C 5,0 C 71 % 0 % 992 hPa 0,0 l/m 6,6 km/h (2 Bft)
28.02.2010 17:15 22,2 C 6,1 C 5,1 C 71 % 0 % 992 hPa 0,0 l/m 6,7 km/h (2 Bft)
28.02.2010 17:18 22,3 C 6,2 C 5,0 C 71 % 0 % 992 hPa 0,0 l/m 6,7 km/h (2 Bft)
28.02.2010 17:21 22,4 C 6,2 C 4,8 C 71 % 0 % 992 hPa 0,0 l/m 3,1 km/h (1 Bft)
28.02.2010 17:24 22,4 C 6,2 C 4,7 C 70 % 0 % 992 hPa 0,0 l/m 0,4 km/h (0 Bft)
28.02.2010 17:27 22,5 C 6,2 C 4,8 C 71 % 0 % 992 hPa 0,0 l/m 1,3 km/h (1 Bft)
28.02.2010 17:30 22,5 C 6,1 C 4,7 C 71 % 0 % 992 hPa 0,0 l/m 1,3 km/h (1 Bft)
28.02.2010 17:33 22,4 C 6,1 C 4,8 C 71 % 0 % 992 hPa 0,0 l/m 5,5 km/h (1 Bft)
28.02.2010 17:36 22,4 C 6,1 C 4,4 C 71 % 0 % 992 hPa 0,0 l/m 0,3 km/h (0 Bft)
28.02.2010 17:39 22,3 C 6,1 C 4,4 C 71 % 0 % 992 hPa 0,0 l/m 0,0 km/h (0 Bft)
28.02.2010 17:42 22,3 C 6,0 C 4,1 C 71 % 0 % 992 hPa 0,0 l/m 0,0 km/h (0 Bft)
28.02.2010 17:45 22,3 C 6,0 C 4,0 C 71 % 0 % 992 hPa 0,0 l/m 0,3 km/h (0 Bft)
28.02.2010 17:48 22,3 C 6,0 C 3,9 C 72 % 0 % 992 hPa 0,0 l/m 0,1 km/h (0 Bft)
28.02.2010 17:51 22,4 C 6,0 C 4,0 C 72 % 0 % 993 hPa 0,0 l/m 0,2 km/h (0 Bft)
28.02.2010 17:54 22,4 C 5,8 C 4,1 C 72 % 0 % 993 hPa 0,0 l/m 3,9 km/h (1 Bft)
28.02.2010 17:57 22,4 C 5,7 C 4,0 C 72 % 0 % 993 hPa 0,0 l/m 0,1 km/h (0 Bft)
28.02.2010 18:00 22,4 C 5,7 C 4,0 C 73 % 0 % 993 hPa 0,0 l/m 0,4 km/h (0 Bft)
28.02.2010 18:03 22,4 C 5,7 C 3,9 C 73 % 0 % 993 hPa 0,0 l/m 0,6 km/h (0 Bft)
28.02.2010 18:06 22,4 C 5,6 C 3,9 C 73 % 0 % 993 hPa 0,0 l/m 0,1 km/h (0 Bft)
28.02.2010 18:09 22,4 C 5,5 C 3,8 C 74 % 0 % 993 hPa 0,0 l/m 0,3 km/h (0 Bft)
28.02.2010 18:12 22,5 C 5,4 C 3,8 C 74 % 0 % 993 hPa 0,0 l/m 0,2 km/h (0 Bft)
28.02.2010 18:15 22,4 C 5,3 C 3,8 C 74 % 0 % 993 hPa 0,0 l/m 4,0 km/h (1 Bft)
28.02.2010 18:18 22,4 C 5,3 C 4,1 C 75 % 0 % 993 hPa 0,0 l/m 1,6 km/h (1 Bft)
28.02.2010 18:21 22,3 C 5,4 C 4,2 C 75 % 0 % 993 hPa 0,0 l/m 1,6 km/h (1 Bft)
28.02.2010 18:24 22,2 C 5,4 C 4,1 C 74 % 0 % 993 hPa 0,0 l/m 6,0 km/h (2 Bft)
28.02.2010 18:27 22,2 C 5,5 C 4,0 C 74 % 0 % 993 hPa 0,0 l/m 0,3 km/h (0 Bft)
28.02.2010 18:30 22,2 C 5,5 C 4,3 C 74 % 0 % 993 hPa 0,0 l/m 3,1 km/h (1 Bft)
28.02.2010 18:33 22,2 C 5,6 C 4,3 C 74 % 0 % 993 hPa 0,0 l/m 0,0 km/h (0 Bft)
28.02.2010 18:36 22,2 C 5,6 C 4,1 C 74 % 0 % 993 hPa 0,0 l/m 0,6 km/h (0 Bft)
28.02.2010 18:39 22,1 C 5,6 C 3,9 C 74 % 0 % 993 hPa 0,0 l/m 0,5 km/h (0 Bft)
28.02.2010 18:42 22,1 C 5,5 C 4,1 C 74 % 0 % 993 hPa 0,0 l/m 1,8 km/h (1 Bft)
28.02.2010 18:45 22,0 C 5,4 C 4,0 C 74 % 0 % 993 hPa 0,0 l/m 0,2 km/h (0 Bft)
28.02.2010 18:48 22,0 C 5,4 C 3,9 C 74 % 0 % 993 hPa 0,0 l/m 1,0 km/h (0 Bft)
28.02.2010 18:51 21,8 C 5,4 C 4,0 C 75 % 0 % 993 hPa 0,0 l/m 4,0 km/h (1 Bft)
28.02.2010 18:54 20,8 C 5,3 C 3,9 C 75 % 0 % 993 hPa 0,0 l/m 1,0 km/h (0 Bft)
28.02.2010 18:57 19,7 C 5,3 C 3,9 C 75 % 0 % 993 hPa 0,0 l/m 0,5 km/h (0 Bft)
28.02.2010 19:00 18,9 C 5,2 C 3,9 C 75 % 0 % 993 hPa 0,0 l/m 2,5 km/h (1 Bft)
28.02.2010 19:03 18,6 C 5,2 C 3,8 C 75 % 0 % 993 hPa 0,0 l/m 0,4 km/h (0 Bft)
28.02.2010 19:06 18,6 C 5,2 C 3,7 C 75 % 0 % 993 hPa 0,0 l/m 2,9 km/h (1 Bft)
28.02.2010 19:09 19,3 C 5,3 C 3,9 C 75 % 0 % 994 hPa 0,0 l/m 2,8 km/h (1 Bft)
28.02.2010 19:12 20,1 C 5,3 C 3,7 C 75 % 0 % 994 hPa 0,0 l/m 4,2 km/h (1 Bft)
28.02.2010 19:15 20,1 C 5,3 C 3,7 C 75 % 0 % 994 hPa 0,0 l/m 3,1 km/h (1 Bft)
28.02.2010 19:18 20,7 C 5,3 C 4,2 C 75 % 0 % 994 hPa 0,0 l/m 3,1 km/h (1 Bft)
28.02.2010 19:21 20,9 C 5,4 C 4,1 C 75 % 0 % 994 hPa 0,0 l/m 0,9 km/h (0 Bft)
28.02.2010 19:24 21,0 C 5,4 C 4,1 C 75 % 0 % 994 hPa 0,0 l/m 3,3 km/h (1 Bft)
28.02.2010 19:27 21,2 C 5,4 C 4,2 C 75 % 0 % 994 hPa 0,0 l/m 1,6 km/h (1 Bft)
28.02.2010 19:30 21,2 C 5,4 C 4,3 C 75 % 0 % 994 hPa 0,0 l/m 8,1 km/h (2 Bft)
28.02.2010 19:33 21,3 C 5,5 C 4,0 C 75 % 0 % 994 hPa 0,0 l/m 8,1 km/h (2 Bft)
28.02.2010 19:36 21,4 C 5,5 C 4,2 C 75 % 0 % 994 hPa 0,0 l/m 0,1 km/h (0 Bft)
28.02.2010 19:39 21,5 C 5,6 C 4,0 C 75 % 0 % 994 hPa 0,0 l/m 0,0 km/h (0 Bft)
28.02.2010 19:42 21,6 C 5,6 C 3,9 C 75 % 0 % 994 hPa 0,0 l/m 0,3 km/h (0 Bft)
28.02.2010 19:45 21,6 C 5,7 C 3,8 C 74 % 0 % 994 hPa 0,0 l/m 0,3 km/h (0 Bft)
28.02.2010 19:48 21,7 C 5,7 C 3,8 C 75 % 0 % 994 hPa 0,0 l/m 0,0 km/h (0 Bft)
28.02.2010 19:51 21,7 C 5,7 C 3,8 C 74 % 0 % 994 hPa 0,0 l/m 0,0 km/h (0 Bft)
28.02.2010 19:54 21,8 C 5,6 C 3,7 C 74 % 0 % 994 hPa 0,0 l/m 0,0 km/h (0 Bft)
28.02.2010 19:57 21,8 C 5,6 C 3,6 C 75 % 0 % 994 hPa 0,0 l/m 0,0 km/h (0 Bft)
28.02.2010 20:00 21,8 C 5,6 C 3,5 C 75 % 0 % 994 hPa 0,0 l/m 0,0 km/h (0 Bft)
28.02.2010 20:03 21,8 C 5,4 C 3,5 C 75 % 0 % 994 hPa 0,0 l/m 0,0 km/h (0 Bft)
28.02.2010 20:06 21,8 C 5,4 C 3,5 C 75 % 0 % 994 hPa 0,0 l/m 0,0 km/h (0 Bft)
28.02.2010 20:09 21,8 C 5,3 C 3,5 C 75 % 0 % 994 hPa 0,0 l/m 2,6 km/h (1 Bft)
28.02.2010 20:12 22,0 C 5,3 C 3,8 C 75 % 0 % 994 hPa 0,0 l/m 1,0 km/h (0 Bft)
28.02.2010 20:15 22,0 C 5,3 C 3,9 C 76 % 0 % 994 hPa 0,0 l/m 2,1 km/h (1 Bft)
28.02.2010 20:18 22,0 C 5,3 C 3,7 C 76 % 0 % 994 hPa 0,0 l/m 0,0 km/h (0 Bft)
28.02.2010 20:21 22,0 C 5,2 C 3,7 C 76 % 0 % 994 hPa 0,0 l/m 0,4 km/h (0 Bft)
28.02.2010 20:24 22,0 C 5,2 C 3,6 C 76 % 0 % 994 hPa 0,0 l/m 4,4 km/h (1 Bft)
28.02.2010 20:27 22,0 C 5,2 C 3,5 C 76 % 0 % 994 hPa 0,0 l/m 0,3 km/h (0 Bft)
28.02.2010 20:30 22,0 C 5,2 C 3,4 C 76 % 0 % 994 hPa 0,0 l/m 6,3 km/h (2 Bft)
28.02.2010 20:33 22,0 C 5,2 C 3,6 C 76 % 0 % 995 hPa 0,0 l/m 6,5 km/h (2 Bft)
28.02.2010 20:36 22,0 C 5,4 C 4,1 C 76 % 0 % 995 hPa 0,0 l/m 7,4 km/h (2 Bft)
28.02.2010 20:39 22,0 C 5,6 C 4,1 C 75 % 0 % 995 hPa 0,0 l/m 8,1 km/h (2 Bft)
28.02.2010 20:42 22,1 C 5,9 C 4,4 C 74 % 0 % 995 hPa 0,0 l/m 6,9 km/h (2 Bft)
28.02.2010 20:45 22,0 C 5,9 C 4,1 C 74 % 0 % 995 hPa 0,0 l/m 6,6 km/h (2 Bft)
28.02.2010 20:48 22,0 C 6,2 C 4,1 C 73 % 0 % 995 hPa 0,0 l/m 8,3 km/h (2 Bft)
28.02.2010 20:51 22,0 C 6,2 C 4,1 C 73 % 0 % 995 hPa 0,0 l/m 6,4 km/h (2 Bft)
28.02.2010 20:54 22,0 C 6,3 C 4,1 C 72 % 0 % 995 hPa 0,0 l/m 8,6 km/h (2 Bft)
28.02.2010 20:57 22,0 C 6,4 C 4,2 C 72 % 0 % 995 hPa 0,0 l/m 16,7 km/h (3 Bft)
28.02.2010 21:00 22,0 C 6,4 C 4,3 C 71 % 0 % 995 hPa 0,0 l/m 5,4 km/h (1 Bft)
28.02.2010 21:03 22,0 C 6,4 C 4,3 C 71 % 0 % 995 hPa 0,0 l/m 16,0 km/h (3 Bft)
28.02.2010 21:06 22,0 C 7,0 C 4,5 C 68 % 0 % 995 hPa 0,0 l/m 18,3 km/h (3 Bft)
28.02.2010 21:09 22,0 C 7,2 C 4,9 C 67 % 0 % 995 hPa 0,0 l/m 16,8 km/h (3 Bft)
28.02.2010 21:12 22,0 C 7,4 C 4,9 C 65 % 0 % 995 hPa 0,0 l/m 14,2 km/h (3 Bft)
28.02.2010 21:15 22,0 C 7,6 C 5,0 C 64 % 0 % 995 hPa 0,0 l/m 13,2 km/h (3 Bft)
28.02.2010 21:18 22,0 C 8,1 C 5,8 C 61 % 0 % 995 hPa 0,0 l/m 19,6 km/h (3 Bft)
28.02.2010 21:21 22,0 C 8,6 C 6,0 C 59 % 0 % 995 hPa 0,0 l/m 24,9 km/h (4 Bft)
28.02.2010 21:24 22,0 C 8,9 C 5,9 C 58 % 0 % 995 hPa 0,0 l/m 19,5 km/h (3 Bft)
28.02.2010 21:27 22,0 C 9,1 C 6,2 C 57 % 0 % 995 hPa 0,0 l/m 24,3 km/h (4 Bft)
28.02.2010 21:30 22,0 C 9,3 C 6,4 C 57 % 0 % 995 hPa 0,0 l/m 30,6 km/h (5 Bft)
28.02.2010 21:33 22,0 C 9,4 C 6,6 C 57 % 0 % 995 hPa 0,0 l/m 25,8 km/h (4 Bft)
28.02.2010 21:36 22,0 C 9,4 C 6,5 C 57 % 0 % 995 hPa 0,0 l/m 25,1 km/h (4 Bft)
28.02.2010 21:39 22,0 C 9,6 C 6,7 C 55 % 0 % 995 hPa 0,0 l/m 31,1 km/h (5 Bft)
28.02.2010 21:42 22,0 C 9,7 C 6,8 C 55 % 0 % 995 hPa 0,0 l/m 27,7 km/h (4 Bft)
28.02.2010 21:45 22,0 C 9,6 C 6,3 C 56 % 0 % 995 hPa 0,0 l/m 27,7 km/h (4 Bft)
28.02.2010 21:48 22,0 C 9,5 C 6,3 C 56 % 0 % 995 hPa 0,0 l/m 25,9 km/h (4 Bft)
28.02.2010 21:51 22,0 C 9,5 C 6,3 C 56 % 0 % 995 hPa 0,0 l/m 21,6 km/h (4 Bft)
28.02.2010 21:54 22,0 C 9,4 C 6,3 C 57 % 0 % 995 hPa 0,0 l/m 17,6 km/h (3 Bft)
28.02.2010 21:57 22,0 C 9,3 C 6,3 C 57 % 0 % 995 hPa 0,0 l/m 21,8 km/h (4 Bft)
28.02.2010 22:00 22,0 C 9,3 C 6,1 C 57 % 0 % 995 hPa 0,0 l/m 19,6 km/h (3 Bft)
28.02.2010 22:03 22,0 C 9,4 C 6,1 C 57 % 0 % 996 hPa 0,0 l/m 17,3 km/h (3 Bft)
28.02.2010 22:06 22,0 C 9,2 C 5,9 C 58 % 0 % 996 hPa 0,0 l/m 17,0 km/h (3 Bft)
28.02.2010 22:09 22,0 C 9,2 C 5,7 C 58 % 0 % 996 hPa 0,0 l/m 12,6 km/h (3 Bft)
28.02.2010 22:12 22,0 C 8,9 C 5,7 C 59 % 0 % 996 hPa 0,0 l/m 16,0 km/h (3 Bft)
28.02.2010 22:15 22,0 C 8,8 C 5,7 C 59 % 0 % 996 hPa 0,0 l/m 12,4 km/h (3 Bft)
28.02.2010 22:18 21,9 C 8,8 C 5,6 C 59 % 0 % 996 hPa 0,0 l/m 15,4 km/h (3 Bft)
28.02.2010 22:21 21,9 C 8,8 C 5,8 C 59 % 0 % 996 hPa 0,0 l/m 16,0 km/h (3 Bft)
28.02.2010 22:24 21,9 C 8,8 C 5,5 C 59 % 0 % 996 hPa 0,0 l/m 13,0 km/h (3 Bft)
28.02.2010 22:27 21,9 C 8,9 C 5,4 C 59 % 0 % 996 hPa 0,0 l/m 12,8 km/h (3 Bft)
28.02.2010 22:30 22,0 C 8,9 C 5,3 C 59 % 0 % 996 hPa 0,0 l/m 9,7 km/h (2 Bft)
28.02.2010 22:33 21,9 C 8,8 C 5,5 C 60 % 0 % 996 hPa 0,0 l/m 9,7 km/h (2 Bft)
28.02.2010 22:36 22,0 C 8,8 C 5,2 C 60 % 0 % 996 hPa 0,0 l/m 4,3 km/h (1 Bft)
28.02.2010 22:39 22,0 C 8,8 C 5,2 C 59 % 0 % 996 hPa 0,0 l/m 12,2 km/h (2 Bft)
28.02.2010 22:42 21,9 C 8,8 C 5,1 C 60 % 0 % 996 hPa 0,0 l/m 8,0 km/h (2 Bft)
28.02.2010 22:45 21,9 C 8,8 C 4,6 C 60 % 0 % 996 hPa 0,0 l/m 7,5 km/h (2 Bft)
28.02.2010 22:48 21,9 C 8,8 C 4,6 C 60 % 0 % 996 hPa 0,0 l/m 8,9 km/h (2 Bft)
28.02.2010 22:51 21,9 C 8,6 C 5,2 C 60 % 0 % 996 hPa 0,0 l/m 9,4 km/h (2 Bft)
28.02.2010 22:54 21,9 C 8,7 C 5,6 C 60 % 0 % 996 hPa 0,0 l/m 20,4 km/h (4 Bft)
28.02.2010 22:57 21,9 C 8,7 C 5,5 C 60 % 0 % 996 hPa 0,0 l/m 10,8 km/h (2 Bft)
28.02.2010 23:00 21,9 C 8,5 C 5,0 C 61 % 0 % 996 hPa 0,0 l/m 7,5 km/h (2 Bft)
28.02.2010 23:03 21,9 C 8,4 C 4,8 C 61 % 0 % 996 hPa 0,0 l/m 10,8 km/h (2 Bft)
28.02.2010 23:06 21,9 C 8,4 C 4,9 C 62 % 0 % 996 hPa 0,0 l/m 6,1 km/h (2 Bft)
28.02.2010 23:09 21,9 C 8,2 C 4,6 C 62 % 0 % 996 hPa 0,0 l/m 6,2 km/h (2 Bft)
28.02.2010 23:12 21,9 C 8,0 C 4,6 C 63 % 0 % 996 hPa 0,0 l/m 10,8 km/h (2 Bft)
28.02.2010 23:15 21,9 C 7,8 C 4,7 C 63 % 0 % 996 hPa 0,0 l/m 6,3 km/h (2 Bft)
28.02.2010 23:18 21,9 C 7,7 C 4,8 C 64 % 0 % 996 hPa 0,0 l/m 6,3 km/h (2 Bft)
28.02.2010 23:21 21,9 C 7,7 C 4,9 C 64 % 0 % 996 hPa 0,0 l/m 10,6 km/h (2 Bft)
28.02.2010 23:24 21,9 C 7,8 C 5,1 C 64 % 0 % 996 hPa 0,0 l/m 9,9 km/h (2 Bft)
28.02.2010 23:27 21,9 C 8,0 C 5,4 C 64 % 0 % 997 hPa 0,0 l/m 15,5 km/h (3 Bft)
28.02.2010 23:30 21,9 C 8,0 C 5,8 C 64 % 0 % 997 hPa 0,0 l/m 17,6 km/h (3 Bft)
28.02.2010 23:33 21,9 C 8,3 C 5,6 C 63 % 0 % 997 hPa 0,0 l/m 13,5 km/h (3 Bft)
28.02.2010 23:36 21,9 C 8,5 C 6,0 C 63 % 0 % 997 hPa 0,0 l/m 26,7 km/h (4 Bft)
28.02.2010 23:39 21,9 C 8,6 C 5,9 C 62 % 0 % 997 hPa 0,0 l/m 20,7 km/h (4 Bft)
28.02.2010 23:42 21,9 C 8,6 C 5,8 C 62 % 0 % 997 hPa 0,0 l/m 20,2 km/h (4 Bft)
28.02.2010 23:45 21,9 C 8,7 C 5,8 C 62 % 0 % 997 hPa 0,0 l/m 20,8 km/h (4 Bft)
28.02.2010 23:48 21,9 C 8,8 C 6,0 C 61 % 0 % 997 hPa 0,0 l/m 29,6 km/h (5 Bft)
28.02.2010 23:51 21,9 C 8,8 C 6,4 C 61 % 0 % 997 hPa 0,0 l/m 33,6 km/h (5 Bft)
28.02.2010 23:54 21,9 C 8,8 C 6,2 C 61 % 0 % 997 hPa 0,0 l/m 26,3 km/h (4 Bft)
28.02.2010 23:57 21,9 C 8,7 C 6,0 C 61 % 0 % 997 hPa 0,0 l/m 30,2 km/h (5 Bft)
_ Min-Zeit 09:39 06:45 06:18 21:39 - 07:27 - 00:59
Minimum _ 16,4 C 1,5 C 0,3 C 55 % - 989 hPa - 0,0 km/h (0 Bft)
_ Max-Zeit 17:27 21:42 10:18 07:00 00:02 23:27 05:36 23:51
Maximum _ 22,5 C 9,7 C 11,2 C 83 % 0 % 997 hPa 0,3 l/m 33,6 km/h
W-NW (5 Bft)
Durchschnitt _ 21,5 C 5,5 C 4,5 C 68 % #0 min. 992 hPa #1,0 l/m 6,5 km/h (2 Bft)